Погода в Елатьме

Погода в Елатьме : погода сейчас, прогноз погоды и архив. Всё, что Вы хотите узнать о погоде в Елатьме!

Поиск расширенной информации на нашем сайте:

Полезная информация: Юридическая фирма Автоадвокат.

Другие новости

Новости СМИ2

Главная страница сайта

Новости сайта

03.07.2017

Напоминаем, что на нашем специализированном сайте Метеоцентр.Азия вы можете получить высокодетализированные автоматические прогнозы погоды по пунктам России, СНГ и мира в авиационном формате (включающие направление и скорость ветра, видимость, явления погоды, количество и форму облачности, нижнюю и верхнюю границу облачности).

Рекомендуем: Домашний текстиль ивановский текстиль. Покупкапродажа всего на свете.

Погода в Елатьме - сегодня

Время (UTC), дата Ветер
(°,м/с) 
Видим.   Явления Облачность Т
(°С)
Тd
(°С)
f(%) Тe
(°С)
Pmin
(гПа)
dP
(гПа)
Po
(мм)
O2
(г/м3)
Тmin Tmax R s Состояние
почвы
06 15.08.17 360 (С) 10 км  {ливн. осадки}  10/3 300 м кучево-дожд., средняя, верхняя 
[Cb cap|Ac trans|Cs]
+19.1 +17.1 88 +32  1020.7  754  280           
09 15.08.17 040 (СВ) 10 км    10/8 300 м кучево-дожд., верхняя 
[Cb cap|Ci fib]
+22.3 +17.2 73 +35  1021.7  1.1  754  277           
12 15.08.17 040 (СВ) 10 км  {ливн. осадки}  10/8 600 м верхняя 
[Cu Sc|Ci fib]
+22 +16.5 71 +33  1022.4  0.7  755  278           
15 15.08.17 040 (СВ) 10 км    5/3 600 м верхняя 
[Cu med, cong|Ci fib]
+22.1 +14.6 62 +30  1023  0.6  755  279    +23       
18 15.08.17 020 (С) 10 км    3/3 600 м 
[Sc]
+18.6 +14.3 76 +27  1024.6  1.4  756  282           
21 15.08.17 040 (СВ) 10 км    ясно 
+16.3 +13 81 +22  1025.6  0.8  757  285           
00 16.08.17 040 (СВ) 10 км    ясно 
+15.1 +12.3 83 +20  1026.2  0.5  757  287           
03 16.08.17 060 (СВ) 10 км    6/0 средняя 
[Ac trans]
+14.4 +12.7 90 +20  1027.1  0.9  758  288  +13.9        сухая 
06 16.08.17 070 (В) 10 км    3/0 верхняя 
[Ci fib]
+19.9 +15 73 +29  1027.4  0.9  759  282           
09 16.08.17 090 (В) 10 км    8/8 300 м кучево-дожд. 
[Cb cap]
+24.2 +13.4 51 +30  1027.1  759  278           
12 16.08.17 100 (В) 10 км    6/4 600 м верхняя 
[Cu Sc|Ci fib]
+24.8 +8.5 35 +25  1027.1  0.1  758  279           
15 16.08.17 100 (В) 10 км    3/1 600 м верхняя 
[Cu hum|Ci fib]
+23.1 +13.1 53 +28  1026.5  -0.6  758  279    +25.2       
18 16.08.17 070 (В) 10 км    ясно 
+14.9 +13.5 91 +22  1027.3  0.2  758  287           
21 16.08.17 110 (В) 10 км    ясно 
+15 +12.3 84 +20  1028.1  759  287           
00 17.08.17 090 (В) 10 км    ясно 
+12.6 +10.9 89 +16  1028.5  0.3  759  290           
03 17.08.17 100 (В) 10 км    3/3 600 м 
[Cu hum]
+13.5 +10.6 83 +17  1028.8  0.3  759  290  +12.6        сухая 
06 17.08.17 060 (СВ) 10 км    ясно 
+20.1 +13.1 64 +25  1028.6  0.2  759  282           
09 17.08.17 тихо ()   10 км    6/6 600 м 
[Cu med, cong]
+22.8 +10.1 45 +24  1027.9  -0.6  759  280           
12 17.08.17 160 (Ю) 10 км    4/4 600 м 
[Cu hum]
+24.8 +10.3 40 +26  1027  -0.8  758  278           
15 17.08.17 150 (ЮВ) 10 км    3/3 600 м 
[Cu hum]
+23.8 +11.3 45 +26  1026.2  -0.8  758  279    +25.4       
18 17.08.17 тихо ()   10 км    ясно 
+14.1 +11.8 86 +17  1027  0.3  758  288           
21 17.08.17 110 (В) 10 км    ясно 
+14.2 +10.5 78 +17  1027  758  288           
00 18.08.17 тихо ()   10 км    10/0 средняя 
[Ac trans]
+10 +9.2 95 +10  1027.3  758  293           
03 18.08.17 070 (В) 10 км    6/0 средняя 
[Ac trans]
+12 +10.3 89 +14  1027.2  0.1  758  291  +9.1        сухая 
06 18.08.17 100 (В) 10 км    8/8 600 м 
[Sc]
+19.1 +12.6 66 +26  1026.8  758  283           
Время (UTC), дата Ветер
(°,м/с) 
Видим.   Явления Облачность Т
(°С)
Тd
(°С)
f(%) Тe
(°С)
Pmin
(гПа)
dP
(гПа)
Po
(мм)
O2
(г/м3)
Тmin Tmax R s Состояние
почвы

Для получения пояснительной информации подведите курсор к названию столбца.

ПОГОДА в Елатьме - архив

Всё, что Вы хотите узнать о погоде в Елатьме - удобно и подробно!

Выберите нужную дату (начиная с 1 января 2015* года) и нажмите кнопку "Найти".
Будут отображены архивные сводки погоды по пункту Елатьма, начиная с указанной даты.


Отображать данные в формате CSV (для использования в таблицах Excel)


Внимание! Наш архив погоды предназначен исключительно для личного некоммерческого использования в познавательных целях. Если Вам необходимы официальные справки о состоянии погоды (для производственных, юридических, коммерческих и т.п. целей), обращайтесь в органы Росгидромета.

*Примечание: данная дата относится к архиву по метеостанциям СССР (Россия, СНГ, Балтия).
Архив по метеостанциям Зарубежной Европы и Азии (кроме Китая) хранится 10 дней, по другим регионам земного шара (Китай, Африка, Америка, Австралия, Океания) - 1 день.

Елатьма - район местоположения метеостанции


Название, широта, долгота, высота метеостанции:
Елатьма 54.9°ш. 41.8°д. 136 м над ур. моря [Российская Федерация]

Дополнительная информация

В oтличие oт бoльшинства пoгoдных сайтoв мы публикуем пoдрoбную метеoинфoрмацию в детальнoм прoфессиoнальнoм фoрмате.

Характеристики температуры и влажнoсти вoздуха измеряются на высoте 2 м в тени вдали oт зданий и деревьев.
Скoрoсть ветра измеряется на высoте 10 м (на урoвне рoста челoвека скoрoсть ветра ниже в 1.5-2 раза). Если метеoстанция нахoдится в гoрoде или в лесу, тo скoрoсть ветра занижена на 2-4 м/с пo сравнению с oткрытым местoм. Скoрoсть ветра над акватoриями крупных рек и oзёр, а также на вершинах хoлмoв на 2-5 м/с выше, чем в oбычных услoвиях.
Атмoсфернoе давление в разных тoчках местнoсти мoжет значительнo oтличаться oт давления на метеoстанции, в зависимoсти oт услoвий рельефа (при пoдъёме на 10 м давление пoнижается примернo на 1 мм рт.ст.).